Location: Tehachapi Municipal Airport
(35.1300°N, 118.4400°W)
Time: 19:30:27
(UTC-07:00)

BREEZE M DEB (TANK) - Visible Passes

Search period start: 30 April 2017 00:00
Search period end: 10 May 2017 00:00
Orbit: 304 x 11972 km, 49.5° (Epoch: 28 April)

Date Brightness Start Highest point End Pass type
(mag) Time Alt. Az. Time Alt. Az. Time Alt. Az.
30 Apr 4.5 02:19:17 10° NW 02:34:32 57° WNW 02:34:32 57° WNW visible
30 Apr 7.0 20:01:02 10° WSW 21:31:55 62° NNW 21:50:33 10° ENE visible
01 May 4.4 01:25:19 10° NW 01:47:46 81° NE 01:47:52 80° NE visible
01 May 7.1 19:00:07 10° SW 20:38:35 69° NNW 21:01:51 10° ENE visible
02 May 4.9 00:29:04 10° WNW 00:58:36 64° NNE 01:01:12 48° E visible
02 May 7.3 18:03:05 10° SW 19:44:28 78° NW 20:13:01 10° NE visible
02 May 5.7 23:29:11 10° WNW 00:08:43 57° NNE 00:14:32 27° E visible
03 May 6.3 22:24:31 10° WNW 23:18:06 55° N 23:27:52 14° E visible
04 May 5.8 03:13:59 10° WNW 03:20:06 20° W 03:20:06 20° W visible
04 May 6.6 21:16:04 10° W 22:26:41 55° N 22:39:54 10° ENE visible
05 May 5.2 02:21:01 10° NW 02:33:26 37° W 02:33:26 37° W visible
05 May 6.8 20:08:11 10° WSW 21:34:21 59° NNW 21:51:11 10° ENE visible
06 May 4.6 01:27:26 10° NW 01:46:45 66° W 01:46:45 66° W visible
06 May 7.0 19:04:26 10° WSW 20:41:01 64° NNW 21:02:21 10° ENE visible
07 May 4.5 00:32:13 10° NW 00:59:16 81° NE 01:00:04 75° E visible
07 May 7.2 18:05:08 10° SW 19:46:40 71° NNW 20:13:24 10° ENE visible
07 May 5.1 23:34:14 10° WNW 00:09:49 66° NNE 00:13:23 44° E visible
08 May 5.8 22:32:09 10° WNW 23:19:35 59° NNE 23:26:41 24° E visible
09 May 6.3 03:17:00 10° WNW 03:18:55 12° W 03:18:55 12° W visible
09 May 6.4 21:25:23 10° W 22:28:30 57° N 22:40:00 11° E visible
